| time (UTC) | temp C | wind direction | speed KPH | gust KPH | rain 1hr cm | rain 24hr cm | rain mn cm | humidity % | barometer mb |
| 20260505101927 | 16 | 48 | 1.6 | 3.2 | 0.00 | 0.00 | 0.00 | 71 | 1010.5 |
| 20260505101421 | 16 | 319 | 0.0 | 1.6 | 0.00 | 0.00 | 0.00 | 71 | 1010.4 |
| 20260505100916 | 16 | 3 | 0.0 | 0.0 | 0.00 | 0.00 | 0.00 | 70 | 1010.3 |
| 20260505100414 | 16 | 0 | 0.0 | 1.6 | 0.00 | 0.00 | 0.00 | 70 | 1010.1 |
| 20260505095909 | 16 | 276 | 0.0 | 0.0 | 0.00 | 0.00 | 0.00 | 69 | 1010.3 |
| 20260505095407 | 16 | 324 | 3.2 | 4.8 | 0.00 | 0.00 | 0.00 | 69 | 1010.0 |
| 20260505094903 | 16 | 180 | 0.0 | 0.0 | 0.00 | 0.00 | 0.00 | 69 | 1009.7 |
| 20260505094400 | 16 | 84 | 0.0 | 0.0 | 0.00 | 0.00 | 0.00 | 69 | 1009.3 |
| 20260505093855 | 16 | 98 | 0.0 | 0.0 | 0.00 | 0.00 | 0.00 | 69 | 1009.5 |
| 20260505093353 | 16 | 89 | 0.0 | 0.0 | 0.00 | 0.00 | 0.00 | 69 | 1009.3 |
| 20260505092850 | 16 | 131 | 0.0 | 0.0 | 0.00 | 0.00 | 0.00 | 68 | 1009.0 |
| 20260505092348 | 16 | 124 | 0.0 | 0.0 | 0.00 | 0.00 | 0.00 | 68 | 1009.0 |
| 20260505091845 | 17 | 138 | 0.0 | 0.0 | 0.00 | 0.00 | 0.00 | 67 | 1008.9 |
| 20260505091343 | 17 | 115 | 3.2 | 4.8 | 0.00 | 0.00 | 0.00 | 68 | 1008.7 |
| 20260505090841 | 17 | 167 | 4.8 | 8.0 | 0.00 | 0.00 | 0.00 | 67 | 1008.7 |
| 20260505090339 | 17 | 220 | 4.8 | 4.8 | 0.00 | 0.00 | 0.00 | 67 | 1008.3 |
| 20260505085835 | 17 | 166 | 3.2 | 3.2 | 0.00 | 0.00 | 0.00 | 67 | 1008.5 |
| 20260505085334 | 17 | 136 | 1.6 | 3.2 | 0.00 | 0.00 | 0.00 | 67 | 1008.2 |
| 20260505084831 | 17 | 172 | 3.2 | 4.8 | 0.00 | 0.00 | 0.00 | 67 | 1008.2 |
| 20260505084329 | 17 | 139 | 4.8 | 8.0 | 0.00 | 0.00 | 0.00 | 67 | 1008.3 |
| 20260505083826 | 17 | 177 | 4.8 | 4.8 | 0.00 | 0.00 | 0.00 | 67 | 1008.5 |
| 20260505083324 | 17 | 148 | 4.8 | 8.0 | 0.00 | 0.00 | 0.00 | 66 | 1008.5 |
| 20260505082820 | 17 | 144 | 3.2 | 4.8 | 0.00 | 0.00 | 0.00 | 66 | 1008.5 |
| 20260505082316 | 17 | 159 | 4.8 | 4.8 | 0.00 | 0.00 | 0.00 | 67 | 1008.5 |
| 20260505081813 | 17 | 170 | 9.7 | 12.9 | 0.00 | 0.00 | 0.00 | 67 | 1007.9 |
| 20260505081310 | 17 | 162 | 4.8 | 8.0 | 0.00 | 0.00 | 0.00 | 67 | 1008.2 |
| 20260505080806 | 17 | 144 | 4.8 | 4.8 | 0.00 | 0.00 | 0.00 | 66 | 1007.9 |
| 20260505080303 | 17 | 172 | 3.2 | 8.0 | 0.00 | 0.00 | 0.00 | 66 | 1008.1 |
| 20260505075758 | 17 | 222 | 4.8 | 8.0 | 0.00 | 0.00 | 0.00 | 66 | 1007.8 |
| 20260505075255 | 17 | 153 | 3.2 | 4.8 | 0.00 | 0.00 | 0.00 | 67 | 1008.0 |
| 20260505074753 | 17 | 170 | 3.2 | 3.2 | 0.00 | 0.00 | 0.00 | 66 | 1007.8 |
| 20260505074250 | 17 | 175 | 0.0 | 0.0 | 0.00 | 0.00 | 0.00 | 65 | 1008.0 |
| 20260505073747 | 17 | 182 | 1.6 | 3.2 | 0.00 | 0.00 | 0.00 | 65 | 1008.0 |
| 20260505073245 | 17 | 177 | 3.2 | 3.2 | 0.00 | 0.00 | 0.00 | 66 | 1008.0 |
| 20260505072741 | 17 | 109 | 8.0 | 9.7 | 0.00 | 0.00 | 0.00 | 66 | 1007.7 |
| 20260505072237 | 17 | 152 | 0.0 | 1.6 | 0.00 | 0.00 | 0.00 | 66 | 1007.7 |
| 20260505071733 | 17 | 164 | 4.8 | 8.0 | 0.00 | 0.00 | 0.00 | 67 | 1008.0 |
| 20260505071230 | 17 | 158 | 0.0 | 0.0 | 0.00 | 0.00 | 0.00 | 67 | 1007.8 |
| 20260505070728 | 17 | 166 | 0.0 | 0.0 | 0.00 | 0.00 | 0.00 | 67 | 1007.9 |
| 20260505070224 | 17 | 165 | 0.0 | 0.0 | 0.00 | 0.00 | 0.00 | 67 | 1007.9 |
| 20260505065720 | 17 | 142 | 0.0 | 0.0 | 0.00 | 0.00 | 0.00 | 68 | 1008.1 |
| 20260505065217 | 17 | 163 | 0.0 | 0.0 | 0.00 | 0.00 | 0.00 | 68 | 1007.9 |
| 20260505064714 | 17 | 158 | 3.2 | 3.2 | 0.00 | 0.00 | 0.00 | 67 | 1008.0 |
| 20260505064212 | 17 | 164 | 4.8 | 4.8 | 0.00 | 0.00 | 0.00 | 67 | 1007.8 |
| 20260505063709 | 17 | 167 | 4.8 | 4.8 | 0.00 | 0.00 | 0.00 | 67 | 1008.0 |
| 20260505063205 | 17 | 142 | 1.6 | 3.2 | 0.00 | 0.00 | 0.00 | 68 | 1008.0 |
| 20260505062701 | 17 | 141 | 6.4 | 8.0 | 0.00 | 0.00 | 0.00 | 68 | 1008.1 |
| 20260505062159 | 17 | 163 | 1.6 | 8.0 | 0.00 | 0.00 | 0.00 | 68 | 1007.8 |
| 20260505061656 | 17 | 156 | 0.0 | 0.0 | 0.00 | 0.00 | 0.00 | 67 | 1007.8 |
| 20260505061154 | 17 | 149 | 0.0 | 0.0 | 0.00 | 0.00 | 0.00 | 68 | 1007.9 |
| 20260505060651 | 17 | 167 | 0.0 | 0.0 | 0.00 | 0.00 | 0.00 | 68 | 1007.8 |
| 20260505060148 | 17 | 178 | 6.4 | 11.3 | 0.00 | 0.00 | 0.00 | 67 | 1007.6 |
| 20260505055643 | 17 | 141 | 4.8 | 4.8 | 0.00 | 0.00 | 0.00 | 67 | 1007.8 |
| 20260505055140 | 17 | 140 | 4.8 | 8.0 | 0.00 | 0.00 | 0.00 | 67 | 1007.9 |
| 20260505054637 | 17 | 140 | 4.8 | 4.8 | 0.00 | 0.00 | 0.00 | 68 | 1007.7 |
| 20260505054135 | 17 | 148 | 8.0 | 9.7 | 0.00 | 0.00 | 0.00 | 67 | 1007.8 |
| 20260505053633 | 17 | 143 | 6.4 | 8.0 | 0.00 | 0.00 | 0.00 | 67 | 1007.6 |
| 20260505053129 | 17 | 146 | 4.8 | 4.8 | 0.00 | 0.00 | 0.00 | 67 | 1007.6 |
| 20260505052626 | 17 | 142 | 6.4 | 8.0 | 0.00 | 0.00 | 0.00 | 67 | 1007.9 |
| 20260505052123 | 17 | 177 | 0.0 | 0.0 | 0.00 | 0.00 | 0.00 | 67 | 1007.7 |
| 20260505051620 | 17 | 154 | 0.0 | 0.0 | 0.00 | 0.00 | 0.00 | 67 | 1007.6 |
| 20260505051118 | 17 | 170 | 0.0 | 0.0 | 0.00 | 0.00 | 0.00 | 67 | 1007.7 |
| 20260505050616 | 17 | 157 | 0.0 | 0.0 | 0.00 | 0.00 | 0.00 | 67 | 1007.7 |
| 20260505050114 | 17 | 138 | 0.0 | 0.0 | 0.00 | 0.00 | 0.00 | 67 | 1007.9 |
| 20260505041544 | 18 | 140 | 0.0 | 0.0 | 0.00 | 0.00 | 0.00 | 66 | 1008.1 |
| 20260505041041 | 17 | 160 | 0.0 | 0.0 | 0.00 | 0.00 | 0.00 | 66 | 1008.2 |
| 20260505040538 | 18 | 146 | 3.2 | 3.2 | 0.00 | 0.00 | 0.00 | 66 | 1008.3 |
| 20260505040035 | 18 | 159 | 3.2 | 3.2 | 0.00 | 0.00 | 0.00 | 67 | 1008.2 |
| 20260505035531 | 18 | 160 | 3.2 | 3.2 | 0.00 | 0.00 | 0.00 | 67 | 1008.6 |
| 20260505035028 | 18 | 157 | 0.0 | 0.0 | 0.00 | 0.00 | 0.00 | 67 | 1008.2 |
| 20260505034524 | 18 | 145 | 0.0 | 0.0 | 0.00 | 0.00 | 0.00 | 67 | 1008.3 |
| 20260505034021 | 18 | 171 | 0.0 | 0.0 | 0.00 | 0.00 | 0.00 | 66 | 1008.1 |
| 20260505033519 | 18 | 150 | 0.0 | 0.0 | 0.00 | 0.00 | 0.00 | 66 | 1008.0 |
| 20260505033017 | 18 | 143 | 0.0 | 0.0 | 0.00 | 0.00 | 0.00 | 66 | 1008.1 |
| 20260505032514 | 18 | 130 | 0.0 | 0.0 | 0.00 | 0.00 | 0.00 | 66 | 1008.1 |
| 20260505032010 | 18 | 163 | 0.0 | 0.0 | 0.00 | 0.00 | 0.00 | 65 | 1007.9 |
| 20260505031508 | 18 | 154 | 0.0 | 0.0 | 0.00 | 0.00 | 0.00 | 66 | 1007.8 |
| 20260505031004 | 18 | 143 | 0.0 | 0.0 | 0.00 | 0.00 | 0.00 | 66 | 1007.9 |
| 20260505030501 | 18 | 154 | 0.0 | 0.0 | 0.00 | 0.00 | 0.00 | 66 | 1007.7 |
| 20260505025955 | 18 | 136 | 0.0 | 0.0 | 0.00 | 0.00 | 0.00 | 66 | 1007.7 |
| 20260505025453 | 18 | 142 | 0.0 | 0.0 | 0.00 | 0.00 | 0.00 | 66 | 1007.8 |
| 20260505024952 | 18 | 144 | 0.0 | 0.0 | 0.00 | 0.00 | 0.00 | 66 | 1007.8 |
| 20260505024448 | 18 | 140 | 0.0 | 0.0 | 0.00 | 0.00 | 0.00 | 66 | 1007.8 |
| 20260505023946 | 18 | 133 | 0.0 | 0.0 | 0.00 | 0.00 | 0.00 | 66 | 1007.8 |
| 20260505023443 | 18 | 134 | 0.0 | 0.0 | 0.00 | 0.00 | 0.00 | 67 | 1007.5 |
| 20260505022940 | 18 | 125 | 0.0 | 0.0 | 0.00 | 0.00 | 0.00 | 66 | 1007.5 |
| 20260505022438 | 18 | 116 | 0.0 | 0.0 | 0.00 | 0.00 | 0.00 | 66 | 1007.6 |
| 20260505021935 | 19 | 137 | 0.0 | 0.0 | 0.00 | 0.00 | 0.00 | 65 | 1007.1 |
| 20260505021431 | 19 | 122 | 0.0 | 0.0 | 0.00 | 0.00 | 0.00 | 64 | 1007.3 |
| 20260505020927 | 19 | 134 | 0.0 | 0.0 | 0.00 | 0.00 | 0.00 | 64 | 1006.9 |
| 20260505020422 | 19 | 131 | 0.0 | 0.0 | 0.00 | 0.00 | 0.00 | 64 | 1006.9 |
| 20260505015919 | 19 | 148 | 0.0 | 0.0 | 0.00 | 0.00 | 0.00 | 63 | 1006.7 |
| 20260505015416 | 20 | 131 | 0.0 | 0.0 | 0.00 | 0.00 | 0.00 | 63 | 1006.4 |
| 20260505014914 | 20 | 148 | 0.0 | 0.0 | 0.00 | 0.00 | 0.00 | 63 | 1006.7 |
| 20260505014410 | 20 | 165 | 0.0 | 0.0 | 0.00 | 0.00 | 0.00 | 63 | 1006.5 |
| 20260505013907 | 20 | 157 | 0.0 | 0.0 | 0.00 | 0.00 | 0.00 | 62 | 1006.6 |
| 20260505013404 | 20 | 145 | 0.0 | 0.0 | 0.00 | 0.00 | 0.00 | 62 | 1006.4 |
| 20260505012902 | 20 | 133 | 0.0 | 0.0 | 0.00 | 0.00 | 0.00 | 62 | 1006.5 |
| 20260505012400 | 20 | 138 | 0.0 | 0.0 | 0.00 | 0.00 | 0.00 | 62 | 1006.8 |
| 20260505011856 | 20 | 154 | 0.0 | 0.0 | 0.00 | 0.00 | 0.00 | 61 | 1006.4 |
| 20260505011353 | 20 | 150 | 0.0 | 0.0 | 0.00 | 0.00 | 0.00 | 59 | 1006.5 |
| 20260505010849 | 20 | 137 | 0.0 | 0.0 | 0.00 | 0.00 | 0.00 | 59 | 1006.3 |
| 20260505010345 | 20 | 126 | 0.0 | 0.0 | 0.00 | 0.00 | 0.00 | 59 | 1006.4 |
| 20260505005841 | 20 | 143 | 0.0 | 0.0 | 0.00 | 0.00 | 0.00 | 59 | 1006.5 |
| 20260505005338 | 21 | 134 | 0.0 | 0.0 | 0.00 | 0.00 | 0.00 | 58 | 1006.6 |
| 20260505004836 | 21 | 138 | 0.0 | 0.0 | 0.00 | 0.00 | 0.00 | 57 | 1006.5 |
| 20260505004332 | 21 | 112 | 0.0 | 0.0 | 0.00 | 0.00 | 0.00 | 57 | 1006.7 |
| 20260505003830 | 21 | 167 | 0.0 | 0.0 | 0.00 | 0.00 | 0.00 | 57 | 1006.7 |
| 20260505003327 | 21 | 160 | 0.0 | 0.0 | 0.00 | 0.00 | 0.00 | 57 | 1006.8 |
| 20260505002822 | 21 | 110 | 0.0 | 0.0 | 0.00 | 0.00 | 0.00 | 56 | 1006.6 |
| 20260505002320 | 21 | 168 | 0.0 | 0.0 | 0.00 | 0.00 | 0.00 | 56 | 1006.6 |
| 20260505001818 | 22 | 138 | 0.0 | 0.0 | 0.00 | 0.00 | 0.00 | 54 | 1006.8 |
| 20260505001314 | 22 | 90 | 0.0 | 0.0 | 0.00 | 0.00 | 0.00 | 53 | 1006.6 |
| 20260505000812 | 22 | 159 | 3.2 | 3.2 | 0.00 | 0.00 | 0.00 | 54 | 1006.8 |
| 20260505000310 | 22 | 158 | 4.8 | 4.8 | 0.00 | 0.00 | 0.00 | 53 | 1006.6 |
| 20260504235806 | 22 | 161 | 3.2 | 3.2 | 0.00 | 0.00 | 0.00 | 53 | 1006.5 |
| 20260504235304 | 22 | 149 | 0.0 | 0.0 | 0.00 | 0.00 | 0.00 | 52 | 1006.5 |
| 20260504234759 | 23 | 165 | 0.0 | 0.0 | 0.00 | 0.00 | 0.00 | 52 | 1006.5 |
| 20260504234257 | 23 | 175 | 4.8 | 4.8 | 0.00 | 0.00 | 0.00 | 52 | 1006.9 |
| 20260504233753 | 23 | 132 | 3.2 | 3.2 | 0.00 | 0.00 | 0.00 | 52 | 1006.8 |
| 20260504233249 | 23 | 145 | 4.8 | 9.7 | 0.00 | 0.00 | 0.00 | 52 | 1007.1 |
| 20260504232746 | 23 | 157 | 4.8 | 8.0 | 0.00 | 0.00 | 0.00 | 52 | 1007.1 |
| 20260504232243 | 23 | 235 | 4.8 | 8.0 | 0.00 | 0.00 | 0.00 | 51 | 1007.1 |
| 20260504231740 | 23 | 119 | 0.0 | 0.0 | 0.00 | 0.00 | 0.00 | 52 | 1007.0 |
| 20260504231236 | 23 | 163 | 0.0 | 0.0 | 0.00 | 0.00 | 0.00 | 52 | 1007.3 |
| 20260504230732 | 23 | 143 | 4.8 | 8.0 | 0.00 | 0.00 | 0.00 | 52 | 1007.5 |
| 20260504230231 | 23 | 64 | 3.2 | 3.2 | 0.00 | 0.00 | 0.00 | 52 | 1007.5 |
| 20260504225730 | 23 | 182 | 0.0 | 0.0 | 0.00 | 0.00 | 0.00 | 52 | 1007.4 |
| 20260504225225 | 23 | 117 | 0.0 | 0.0 | 0.00 | 0.00 | 0.00 | 52 | 1007.6 |
| 20260504224723 | 23 | 157 | 8.0 | 9.7 | 0.00 | 0.00 | 0.00 | 50 | 1007.5 |
| 20260504224220 | 23 | 156 | 6.4 | 9.7 | 0.00 | 0.00 | 0.00 | 51 | 1007.7 |
| 20260504223716 | 23 | 147 | 4.8 | 8.0 | 0.00 | 0.00 | 0.00 | 52 | 1007.8 |
| 20260504223212 | 23 | 5 | 0.0 | 1.6 | 0.00 | 0.00 | 0.00 | 51 | 1007.8 |
| 20260504222709 | 23 | 165 | 0.0 | 0.0 | 0.00 | 0.00 | 0.00 | 50 | 1007.8 |
| 20260504222206 | 23 | 167 | 8.0 | 9.7 | 0.00 | 0.00 | 0.00 | 49 | 1008.0 |
| 20260504221703 | 24 | 183 | 0.0 | 0.0 | 0.00 | 0.00 | 0.00 | 48 | 1007.8 |
| 20260504221200 | 25 | 177 | 4.8 | 8.0 | 0.00 | 0.00 | 0.00 | 48 | 1007.9 |
| 20260504220656 | 25 | 166 | 1.6 | 4.8 | 0.00 | 0.00 | 0.00 | 47 | 1007.8 |
| 20260504220154 | 25 | 147 | 1.6 | 3.2 | 0.00 | 0.00 | 0.00 | 46 | 1008.2 |
| 20260504215650 | 25 | 160 | 6.4 | 8.0 | 0.00 | 0.00 | 0.00 | 46 | 1008.0 |
| 20260504215148 | 25 | 156 | 9.7 | 12.9 | 0.00 | 0.00 | 0.00 | 45 | 1007.9 |
| 20260504214643 | 25 | 185 | 1.6 | 1.6 | 0.00 | 0.00 | 0.00 | 47 | 1008.1 |
| 20260504214140 | 25 | 126 | 0.0 | 0.0 | 0.00 | 0.00 | 0.00 | 47 | 1007.9 |
| 20260504213637 | 25 | 196 | 3.2 | 8.0 | 0.00 | 0.00 | 0.00 | 46 | 1007.7 |
| 20260504213133 | 25 | 192 | 9.7 | 16.1 | 0.00 | 0.00 | 0.00 | 47 | 1008.2 |
| 20260504212630 | 25 | 155 | 0.0 | 0.0 | 0.00 | 0.00 | 0.00 | 48 | 1008.1 |
| 20260504212127 | 25 | 184 | 0.0 | 0.0 | 0.00 | 0.00 | 0.00 | 49 | 1008.1 |
| 20260504211624 | 25 | 317 | 0.0 | 0.0 | 0.00 | 0.00 | 0.00 | 48 | 1008.3 |
| 20260504211120 | 24 | 334 | 1.6 | 1.6 | 0.00 | 0.00 | 0.00 | 49 | 1008.1 |
| 20260504210619 | 24 | 119 | 3.2 | 3.2 | 0.00 | 0.00 | 0.00 | 48 | 1008.2 |
| 20260504210114 | 25 | 22 | 3.2 | 3.2 | 0.00 | 0.00 | 0.00 | 47 | 1008.0 |
| 20260504205612 | 25 | 307 | 3.2 | 8.0 | 0.00 | 0.00 | 0.00 | 48 | 1008.1 |
| 20260504205110 | 26 | 24 | 6.4 | 11.3 | 0.00 | 0.00 | 0.00 | 47 | 1008.1 |
| 20260504204608 | 25 | 158 | 0.0 | 0.0 | 0.00 | 0.00 | 0.00 | 47 | 1008.0 |
| 20260504204107 | 25 | 149 | 11.3 | 12.9 | 0.00 | 0.00 | 0.00 | 47 | 1008.2 |
| 20260504203605 | 25 | 143 | 0.0 | 0.0 | 0.00 | 0.00 | 0.00 | 51 | 1008.1 |
| 20260504203102 | 25 | 157 | 6.4 | 11.3 | 0.00 | 0.00 | 0.00 | 48 | 1008.1 |
| 20260504202557 | 25 | 165 | 4.8 | 8.0 | 0.00 | 0.00 | 0.00 | 48 | 1008.0 |
| 20260504202054 | 25 | 184 | 0.0 | 0.0 | 0.00 | 0.00 | 0.00 | 51 | 1008.1 |
| 20260504201551 | 25 | 158 | 0.0 | 0.0 | 0.00 | 0.00 | 0.00 | 49 | 1008.5 |
| 20260504201049 | 25 | 129 | 4.8 | 4.8 | 0.00 | 0.00 | 0.00 | 49 | 1008.2 |
| 20260504200544 | 25 | 166 | 0.0 | 0.0 | 0.00 | 0.00 | 0.00 | 50 | 1008.2 |
| 20260504200036 | 25 | 147 | 3.2 | 4.8 | 0.00 | 0.00 | 0.00 | 50 | 1008.6 |
| 20260504195532 | 25 | 154 | 4.8 | 4.8 | 0.00 | 0.00 | 0.00 | 52 | 1008.5 |
| 20260504195029 | 24 | 176 | 0.0 | 0.0 | 0.00 | 0.00 | 0.00 | 52 | 1009.0 |
| 20260504194525 | 24 | 50 | 1.6 | 3.2 | 0.00 | 0.00 | 0.00 | 55 | 1009.0 |
| 20260504194020 | 25 | 175 | 0.0 | 0.0 | 0.00 | 0.00 | 0.00 | 53 | 1008.9 |
| 20260504193518 | 25 | 14 | 0.0 | 0.0 | 0.00 | 0.00 | 0.00 | 51 | 1008.9 |
| 20260504193017 | 24 | 166 | 8.0 | 11.3 | 0.00 | 0.00 | 0.00 | 53 | 1009.2 |
| 20260504192514 | 25 | 174 | 8.0 | 11.3 | 0.00 | 0.00 | 0.00 | 51 | 1009.0 |
| 20260504192012 | 25 | 102 | 3.2 | 3.2 | 0.00 | 0.00 | 0.00 | 53 | 1009.3 |
| 20260504191510 | 25 | 138 | 0.0 | 0.0 | 0.00 | 0.00 | 0.00 | 55 | 1009.3 |
| 20260504191005 | 24 | 324 | 4.8 | 4.8 | 0.00 | 0.00 | 0.00 | 54 | 1009.3 |
| 20260504190501 | 24 | 344 | 9.7 | 14.5 | 0.00 | 0.00 | 0.00 | 53 | 1009.6 |
| 20260504185958 | 25 | 125 | 6.4 | 8.0 | 0.00 | 0.00 | 0.00 | 54 | 1009.7 |
| 20260504185455 | 25 | 354 | 0.0 | 0.0 | 0.00 | 0.00 | 0.00 | 54 | 1009.6 |
| 20260504184951 | 24 | 15 | 1.6 | 3.2 | 0.00 | 0.00 | 0.00 | 54 | 1009.5 |
| 20260504184447 | 24 | 145 | 11.3 | 14.5 | 0.00 | 0.00 | 0.00 | 53 | 1009.6 |
| 20260504183943 | 24 | 121 | 0.0 | 0.0 | 0.00 | 0.00 | 0.00 | 56 | 1009.6 |
| 20260504183440 | 24 | 122 | 3.2 | 3.2 | 0.00 | 0.00 | 0.00 | 55 | 1009.4 |
| 20260504182938 | 23 | 155 | 0.0 | 0.0 | 0.00 | 0.00 | 0.00 | 55 | 1009.3 |
| 20260504182435 | 23 | 19 | 0.0 | 0.0 | 0.00 | 0.00 | 0.00 | 57 | 1009.5 |
| 20260504181932 | 22 | 196 | 8.0 | 12.9 | 0.00 | 0.00 | 0.00 | 55 | 1009.5 |
| 20260504181429 | 22 | 127 | 6.4 | 9.7 | 0.00 | 0.00 | 0.00 | 57 | 1009.3 |
| 20260504180928 | 23 | 26 | 1.6 | 1.6 | 0.00 | 0.00 | 0.00 | 56 | 1009.5 |
| 20260504180426 | 23 | 172 | 3.2 | 3.2 | 0.00 | 0.00 | 0.00 | 53 | 1009.3 |
| 20260504175924 | 23 | 85 | 1.6 | 1.6 | 0.00 | 0.00 | 0.00 | 55 | 1009.4 |
| 20260504175421 | 23 | 139 | 0.0 | 0.0 | 0.00 | 0.00 | 0.00 | 59 | 1009.4 |
| 20260504174918 | 22 | 144 | 0.0 | 0.0 | 0.00 | 0.00 | 0.00 | 57 | 1009.7 |
| 20260504174416 | 22 | 140 | 3.2 | 4.8 | 0.00 | 0.00 | 0.00 | 60 | 1009.5 |
| 20260504173913 | 22 | 182 | 3.2 | 3.2 | 0.00 | 0.00 | 0.00 | 58 | 1009.8 |
| 20260504173409 | 22 | 226 | 3.2 | 4.8 | 0.00 | 0.00 | 0.00 | 58 | 1009.6 |
| 20260504172907 | 22 | 144 | 4.8 | 4.8 | 0.00 | 0.00 | 0.00 | 61 | 1009.7 |
| 20260504172403 | 22 | 171 | 0.0 | 0.0 | 0.00 | 0.00 | 0.00 | 62 | 1009.6 |
| 20260504171859 | 21 | 95 | 3.2 | 4.8 | 0.00 | 0.00 | 0.00 | 64 | 1009.5 |
| 20260504171356 | 20 | 158 | 4.8 | 4.8 | 0.00 | 0.00 | 0.00 | 64 | 1009.7 |
| 20260504170853 | 20 | 145 | 0.0 | 0.0 | 0.00 | 0.00 | 0.00 | 63 | 1009.6 |
| 20260504170350 | 20 | 135 | 0.0 | 0.0 | 0.00 | 0.00 | 0.00 | 66 | 1009.8 |
| 20260504160309 | 17 | 131 | 0.0 | 0.0 | 0.00 | 0.00 | 0.00 | 71 | 1010.8 |
| 20260504150733 | 15 | 149 | 6.4 | 9.7 | 0.00 | 0.00 | 0.00 | 78 | 1010.4 |
| 20260504150230 | 15 | 177 | 9.7 | 11.3 | 0.00 | 0.00 | 0.00 | 79 | 1010.4 |
| 20260504141200 | 14 | 176 | 0.0 | 0.0 | 0.00 | 0.00 | 0.00 | 80 | 1009.8 |
| 20260504140656 | 13 | 144 | 0.0 | 0.0 | 0.00 | 0.00 | 0.00 | 81 | 1009.7 |
| 20260504140152 | 13 | 170 | 0.0 | 0.0 | 0.00 | 0.00 | 0.00 | 81 | 1009.9 |
| 20260504130620 | 12 | 158 | 4.8 | 4.8 | 0.00 | 0.00 | 0.00 | 79 | 1011.1 |
| 20260504130117 | 12 | 182 | 0.0 | 0.0 | 0.00 | 0.00 | 0.00 | 78 | 1011.3 |
| 20260504110508 | 11 | 126 | 0.0 | 0.0 | 0.00 | 0.00 | 0.00 | 82 | 1011.1 |